International Virtual Aviation Organisation

Russian Federation and Kazakhstan MCD

 

Карточка аэропорта USHH

Внимание!
Информация на этой странице в стадии наполнения.
Если вы не увидели какой-то информации, или заметили неточность - пожалуйста сообщите нам!
Спасибо!
Команда RU-STAFF
Название аэропортаХанты-Мансийск
Название аэропорта (англ.)Khanty-Mansiysk
Превышение141 ft. (43 m.)
Координаты61°1.7039999999999', 69°5.1599999999999'
Высота перехода800m
Эшелон переходаFL050
Коды ответчика5150-5177
Зона ОрВДТюмень РПИ (USTV)
Данные METARUSHH 271700Z 13001MPS CAVOK M15/M17 Q1036 R06/450445 TEMPO 2000 SN BKN004
Проноз погоды (TAF)USHH 271358Z 2715/2815 10003MPS 9999 SCT006 BKN015 TEMPO 2715/2806 3100 -SHSN BR SCT003 BKN010CB BECMG 2806/2807 FEW005 BKN016 TEMPO 2807/2815 5000 -SHSN SCT006 BKN010CB
NOTAMshow/hide NOTAM
AWOS   TABLE

Информация о ВПП

ВПП Длина ВПП (м.) Покрытие Курс ВПП Частота ILS
062800Асфальтобетон58111.9
242800Асфальтобетон238110.1

Диспетчерские позиции

Позывной Наименование органа УВД Частота
USHH_R_APPХантым-Круг120.4
USHH_TWRХантым-Вышка118.1



Спутниковое изображение